Theta_e
333 332 332 334 335 337 335 334 332 333 335 333 333 331 327 327 323 319 319 321 323 326 328 325 329 333 334 333 333 331 328 324 325 324 326 326 327 317 315 317 317 317 316 316 315 313 314 315 315 317 318 320 320 318 316 315 314 314 319 319 318 316 313 312 311 317 317 318 316 313 312 311 311 311
333 330 331 336 335 336 333 333 336 336 336 334 332 333 331 330 326 323 320 322 326 326 329 329 327 331 332 333 332 331 329 321 322 319 327 327 325 314 314 314 312 312 314 312 311 310 312 315 317 319 318 319 318 315 314 313 313 315 319 319 317 315 315 312 314 315 315 316 314 312 311 310 310 309
330 329 333 335 337 336 333 335 337 336 334 336 337 333 332 332 331 328 326 322 325 329 326 328 331 330 331 331 331 330 327 321 320 319 325 329 321 315 317 314 312 312 313 309 309 312 313 312 315 317 319 320 318 316 316 315 315 318 318 317 316 316 316 314 314 315 315 316 314 311 311 311 310 309
333 332 332 331 330 335 334 332 332 335 336 338 336 334 334 332 332 330 329 324 323 329 330 329 329 331 331 330 329 330 324 321 317 319 322 327 318 322 324 312 313 313 311 309 312 318 316 314 316 318 319 318 319 318 317 317 317 317 315 313 314 315 315 314 314 315 315 315 316 314 312 311 310 310
333 332 330 329 333 336 332 334 333 332 335 336 336 336 334 332 332 329 328 324 322 329 333 332 329 331 332 329 329 328 325 321 319 318 326 326 325 322 323 322 311 311 310 309 309 311 310 310 317 315 314 316 316 314 312 313 313 313 311 310 310 310 313 314 313 314 315 316 316 316 316 314 313 312
333 333 330 329 331 333 334 333 334 333 335 334 332 331 332 330 331 333 328 327 326 324 331 329 329 329 329 325 329 329 326 323 319 318 324 324 322 318 320 320 322 309 310 308 307 309 310 308 311 310 308 310 310 310 308 307 307 310 307 305 308 313 314 315 312 310 314 315 316 316 316 315 314 313
332 332 332 332 330 331 330 331 332 333 335 334 330 330 332 331 331 329 330 328 325 325 326 329 327 328 328 329 328 329 327 326 321 316 322 321 319 317 319 322 320 309 309 307 307 308 308 307 307 308 308 307 307 307 307 306 305 305 305 303 306 307 308 308 309 308 310 314 315 314 314 314 315 315
331 332 332 332 332 329 328 330 335 335 336 334 332 331 333 332 330 330 332 330 327 327 322 325 325 327 327 328 328 327 327 326 321 317 320 322 317 315 316 321 322 314 308 308 308 308 308 307 306 305 305 306 305 305 304 305 305 303 304 304 304 304 304 304 304 304 307 310 313 313 312 313 314 316
331 331 332 333 333 331 330 330 331 334 334 332 330 330 330 331 331 332 331 331 329 327 326 326 328 328 328 328 329 327 325 324 321 319 317 320 317 314 316 316 321 313 308 308 307 307 306 305 305 304 304 304 304 303 303 303 304 304 304 303 303 302 302 302 302 303 304 304 305 311 313 311 313 314
333 334 332 332 331 330 330 329 332 331 334 332 331 329 329 328 330 332 331 331 330 328 326 327 325 326 327 327 327 326 326 323 320 317 317 319 318 315 315 315 318 317 317 318 315 308 307 305 304 305 304 303 302 302 302 302 303 303 303 302 302 301 301 301 300 300 300 301 301 302 306 308 310 313
332 335 334 333 333 332 333 331 330 332 334 332 332 332 332 329 329 331 330 330 328 326 326 326 327 324 326 327 324 326 324 322 321 318 317 317 316 317 315 314 317 317 316 313 308 311 311 310 310 305 302 302 303 302 302 302 303 303 302 301 300 300 300 300 300 300 299 299 299 299 299 302 305 308
333 334 334 334 334 334 335 335 335 332 330 332 332 332 333 332 329 329 328 329 327 328 326 325 325 322 325 327 327 323 321 319 319 318 317 316 316 316 317 316 315 317 316 315 313 309 308 307 308 305 303 303 303 303 302 302 303 302 301 300 299 299 299 299 300 300 300 300 299 299 298 298 299 303
332 333 332 332 333 334 334 324 326 326 324 333 331 334 332 331 328 329 328 328 328 326 325 324 325 322 321 322 322 319 318 317 317 319 319 317 318 317 316 316 317 316 317 317 315 312 312 309 311 311 310 310 307 305 303 305 304 302 300 299 299 299 299 299 299 300 300 300 300 299 299 298 298 298
333 332 332 333 328 323 321 315 310 308 310 315 325 333 332 330 328 326 325 325 327 325 323 322 323 323 320 319 321 320 321 320 322 320 320 318 317 317 316 317 317 317 317 316 315 314 314 312 310 311 309 310 314 311 309 308 307 305 300 300 300 299 299 299 299 299 299 299 299 299 299 298 298 297
330 331 331 332 329 324 322 319 306 306 303 304 307 309 319 325 332 330 328 328 328 323 324 323 323 324 321 321 321 321 320 321 320 320 321 320 319 316 313 311 316 318 318 317 315 315 317 316 312 312 312 314 316 313 318 305 304 302 301 301 300 300 300 299 299 299 299 299 299 299 298 298 298 297
332 332 331 330 330 328 329 330 322 313 304 301 300 301 302 303 302 303 326 330 326 326 323 322 321 322 325 325 324 322 322 321 321 322 322 320 318 317 315 314 313 317 321 316 315 315 318 318 317 316 316 321 317 311 303 300 301 301 300 300 300 299 300 299 299 299 298 298 298 297 297 297 297 296
329 329 329 328 328 328 324 329 331 327 317 303 299 298 298 296 298 301 300 304 332 332 328 326 325 325 325 324 325 327 331 328 323 323 320 321 319 318 316 314 314 318 322 317 314 313 317 319 317 317 319 316 314 308 302 300 301 300 300 300 299 299 299 299 299 298 297 297 297 297 297 296 296 296
328 328 328 327 327 328 328 331 330 331 328 323 320 321 326 325 307 298 296 299 301 318 330 329 326 328 329 325 324 328 330 325 323 322 320 322 319 319 318 322 324 322 321 317 316 313 315 319 319 317 323 319 315 312 302 300 300 300 300 299 299 299 299 298 298 298 298 297 298 297 297 296 296 295
329 327 328 328 328 328 329 330 330 331 330 329 330 330 330 330 327 327 325 326 327 327 330 330 330 331 330 329 333 332 332 328 326 325 325 324 324 324 323 323 323 322 322 322 322 314 316 324 319 320 321 317 311 308 300 300 300 300 300 299 299 299 298 298 298 298 298 298 298 297 297 296 295 295
327 327 327 325 327 324 328 316 309 317 331 330 329 328 327 321 316 309 298 293 295 317 332 330 329 319 311 308 326 327 330 328 327 324 324 325 324 322 319 315 319 319 323 324 320 317 323 322 319 321 323 316 313 311 310 300 301 301 300 300 299 299 298 298 298 298 298 298 298 297 297 296 295 295
327 320 325 323 325 328 329 311 303 305 310 328 325 324 322 322 318 314 309 297 294 294 294 293 293 294 295 296 295 296 295 312 320 322 319 318 319 318 314 314 314 317 318 317 317 319 318 321 321 322 323 320 314 312 309 309 300 300 300 299 299 299 299 298 298 298 298 298 298 298 297 296 295 295
312 308 303 317 324 324 323 300 304 304 316 325 324 323 321 318 314 312 313 311 304 295 295 294 294 295 297 298 298 297 299 300 312 321 317 318 318 316 314 311 317 315 317 313 315 316 315 319 319 318 319 317 318 315 313 311 306 299 299 299 299 299 299 299 298 299 298 298 298 297 297 295 295 301
313 309 303 298 305 317 303 296 298 296 310 323 325 323 321 317 313 313 314 312 311 312 312 312 313 311 309 316 313 310 300 302 308 320 321 320 316 313 312 315 315 313 313 311 315 313 313 317 316 316 310 307 310 315 314 311 311 310 309 306 306 298 299 299 299 298 298 298 297 297 296 295 296 304
306 304 303 300 292 292 292 292 292 294 294 320 324 323 320 316 311 312 313 314 315 313 313 313 313 313 313 313 313 313 312 312 314 314 314 315 315 314 315 315 316 312 312 310 312 313 312 313 310 312 310 304 301 311 314 312 315 313 313 311 310 300 298 298 297 296 297 297 296 297 296 294 296 302
300 299 299 299 293 291 292 293 293 295 296 305 323 321 320 317 312 309 313 313 306 313 311 311 310 309 308 309 309 310 310 310 310 309 311 313 315 312 311 309 311 307 306 307 301 312 310 311 309 312 311 309 308 307 309 311 312 310 311 310 308 308 308 307 302 302 296 295 295 295 294 295 294 297
296 296 296 295 292 291 292 293 294 295 296 298 304 302 296 296 300 312 311 312 311 310 309 308 307 307 307 307 307 306 307 308 308 308 309 309 310 310 309 309 309 306 305 307 301 310 310 309 307 306 307 306 306 306 308 307 309 310 309 309 308 307 307 307 307 306 305 306 305 300 297 295 296 295
296 297 297 295 292 291 291 292 293 294 295 298 298 295 295 296 297 302 309 309 309 308 308 308 306 305 305 305 305 305 306 306 306 309 309 308 307 307 306 307 310 308 308 309 309 311 310 307 307 306 305 306 303 303 303 302 304 307 306 306 307 307 307 306 305 304 305 305 302 295 295 293 293 294
294 295 296 294 291 291 292 291 291 292 293 295 292 293 295 298 300 308 309 308 309 306 305 304 304 303 304 305 303 303 305 306 308 308 308 308 308 306 306 305 305 307 307 307 307 307 308 307 306 306 305 303 302 301 300 303 303 304 303 305 305 306 305 306 305 305 304 305 305 305 302 300 299 299
293 291 291 291 291 292 293 293 294 293 292 291 292 293 295 302 311 310 310 309 309 304 302 302 302 302 303 302 303 305 305 305 305 306 306 306 305 306 306 306 307 307 307 308 306 306 306 306 305 306 307 308 302 303 301 301 301 301 301 301 300 302 304 305 304 303 304 304 303 303 303 302 301 301
292 291 292 291 292 292 293 297 297 296 295 292 293 293 297 301 302 305 305 304 302 301 300 299 300 300 301 301 303 305 306 305 304 305 304 305 305 305 304 303 303 305 305 305 305 305 305 305 305 305 304 307 302 301 302 300 300 301 300 300 300 301 303 303 303 304 303 303 302 302 302 302 301 300
296 294 294 293 292 293 292 292 292 294 294 296 297 298 299 299 300 300 300 301 301 300 300 299 299 301 302 301 300 300 300 300 302 304 303 304 305 305 303 302 301 301 302 303 303 304 304 304 305 306 302 301 302 302 303 303 299 300 301 301 300 297 300 302 302 302 302 303 303 302 302 301 301 299
296 295 293 294 295 295 295 295 295 295 294 294 295 297 298 298 297 296 296 296 299 299 299 298 299 299 299 298 298 298 299 299 300 301 301 302 302 303 303 300 299 300 301 302 303 302 300 302 303 304 303 301 299 300 301 301 300 300 300 300 299 301 301 300 300 301 302 302 301 301 301 300 300 300
294 293 293 292 292 292 290 290 292 293 293 292 293 294 295 295 296 296 296 296 296 297 297 296 297 296 297 297 298 298 297 298 298 300 301 302 301 301 302 299 299 299 298 299 300 302 303 303 303 303 302 303 302 301 300 298 300 300 299 299 299 299 300 300 300 300 302 301 300 300 299 300 300 301
290 290 289 290 289 290 290 289 289 290 291 291 290 291 290 292 293 294 294 294 294 294 295 296 294 296 294 297 297 296 296 297 298 298 297 300 301 300 299 298 298 299 298 298 299 300 301 302 303 302 302 303 303 300 299 299 297 299 298 299 298 298 299 300 300 301 301 300 299 297 298 298 300 300
288 287 287 287 288 288 289 288 289 290 290 290 290 290 291 292 291 291 292 294 291 291 291 291 292 293 294 294 295 295 295 296 297 298 298 300 301 299 299 298 298 298 298 299 298 300 302 301 300 299 300 300 298 298 299 299 300 299 299 299 299 298 299 300 300 299 299 299 299 296 296 298 298 299
289 288 287 287 287 287 287 287 288 289 290 290 291 290 289 290 290 291 291 293 295 292 292 291 291 291 291 292 292 294 294 293 295 296 295 296 295 295 296 297 296 297 297 297 297 298 300 299 299 297 295 295 294 292 292 297 297 299 297 295 298 298 298 299 299 299 298 297 298 296 292 291 295 298
290 290 290 289 288 288 287 287 288 289 290 290 290 291 290 290 292 294 293 291 293 291 291 291 291 291 291 291 291 291 291 292 292 293 294 295 297 296 294 293 295 297 297 297 298 297 299 297 298 296 294 293 293 292 293 293 294 297 300 296 294 298 297 298 297 295 297 297 297 296 294 292 294 298
290 291 290 290 290 289 289 289 288 288 289 290 290 290 291 292 293 294 295 294 291 291 292 292 291 291 292 291 291 291 292 292 292 291 292 292 293 293 293 294 294 296 296 296 298 297 297 297 296 295 295 290 291 291 291 294 293 295 295 299 294 293 297 296 293 293 295 298 297 297 297 292 295 298
293 292 292 291 291 291 290 290 290 290 291 291 290 290 291 292 293 293 292 292 293 292 291 292 292 291 291 292 292 292 291 291 291 292 292 293 294 293 293 293 292 294 295 293 296 296 297 295 295 295 295 293 290 291 292 291 291 294 292 293 298 294 295 293 293 295 295 292 296 298 296 295 297 291
293 293 293 292 292 293 293 293 292 292 292 292 292 293 292 290 291 291 290 290 290 290 290 291 291 291 291 291 292 292 292 292 292 292 291 292 292 292 293 293 293 292 291 292 292 295 295 294 295 296 296 295 293 293 295 294 295 296 295 293 290 295 293 293 294 293 293 297 297 292 293 294 293 295
293 293 294 294 293 293 293 293 293 293 292 293 293 292 293 293 292 290 290 291 290 291 291 291 290 290 291 292 291 291 291 291 291 291 291 291 291 291 291 289 292 293 291 291 292 293 294 295 296 289 295 296 294 296 294 292 291 292 293 294 291 289 291 292 298 296 292 295 296 293 292 292 292 292
293 293 294 294 294 294 294 294 294 293 293 293 292 290 291 290 290 289 290 289 289 290 291 290 291 291 291 292 292 291 291 291 291 291 291 292 292 291 291 291 292 292 292 291 290 292 296 298 295 296 298 294 294 292 290 290 290 292 293 294 294 291 288 289 290 291 297 293 293 292 292 292 292 290
294 294 294 294 294 294 294 293 293 293 293 292 291 290 290 290 290 290 291 290 291 291 291 291 291 292 292 292 292 292 291 290 291 291 290 291 291 291 291 291 291 291 291 291 293 293 293 295 298 294 294 294 293 293 291 291 291 292 292 293 293 295 293 290 289 289 289 288 290 291 295 292 291 288
295 294 294 294 294 294 294 294 293 293 293 290 291 291 290 291 291 291 291 291 292 291 291 291 291 291 291 292 292 292 292 291 291 290 291 291 291 291 291 291 290 291 292 292 292 293 294 293 294 295 293 292 293 292 291 291 291 291 292 292 293 293 293 293 293 290 290 289 288 288 286 287 289 289
294 294 294 294 294 294 294 294 294 294 293 291 292 292 291 292 291 292 291 291 292 292 291 292 292 292 291 291 291 290 291 291 291 291 292 291 292 292 291 292 291 290 290 291 291 292 292 292 293 294 293 293 292 292 291 291 291 291 291 291 290 291 293 293 292 293 293 293 290 287 288 287 287 286
Wind_Speed
5 5 9 9 7 7 6 5 9 9 4 7 4 5 7 8 8 8 8 8 9 11 11 9 10 9 8 9 8 9 10 13 12 9 8 10 9 11 12 12 11 10 9 8 8 8 8 9 10 11 11 9 9 9 9 9 8 7 6 6 6 5 5 5 2 1 2 5 7 6 6 6 6 5
6 6 9 8 9 7 6 7 7 6 6 6 6 4 7 8 8 8 9 7 8 8 10 9 9 11 10 7 9 10 10 17 14 10 9 11 10 15 13 12 11 10 10 9 9 9 10 10 11 11 11 11 11 10 10 9 9 8 8 8 7 6 6 5 4 4 4 5 8 7 7 8 7 6
8 10 11 9 7 5 8 8 5 9 9 8 5 6 8 7 5 6 5 3 8 8 10 8 8 10 12 12 10 8 10 13 12 10 9 10 16 18 11 13 12 11 11 10 9 10 11 11 11 12 11 10 10 10 9 9 9 10 10 8 8 8 7 7 6 7 7 7 8 9 8 8 8 7
11 12 10 9 11 11 6 10 14 12 10 8 7 7 5 6 7 5 3 5 3 2 4 8 9 10 10 10 9 10 10 10 13 10 9 11 18 12 9 13 14 12 12 11 11 11 12 11 11 10 11 11 10 9 10 9 10 11 10 9 9 9 8 8 7 9 9 9 9 9 9 9 9 9
10 11 9 12 13 9 12 11 9 10 11 10 6 5 5 5 5 9 7 9 8 6 3 4 8 8 9 10 11 11 10 11 10 11 9 13 11 11 10 10 13 14 13 12 12 12 12 12 11 11 11 10 10 10 10 10 10 10 10 9 9 9 9 8 8 8 10 10 10 10 11 12 11 11
9 10 11 12 9 9 8 10 11 11 10 10 11 10 8 8 7 9 11 8 6 9 6 7 9 11 13 12 12 11 11 11 11 12 11 10 11 10 10 11 11 16 14 14 14 13 13 12 12 11 11 10 10 9 9 10 10 10 10 10 9 9 9 9 9 10 9 10 11 11 11 12 11 11
14 14 13 13 9 7 8 12 11 11 10 10 11 11 8 7 7 11 7 6 7 9 8 8 9 9 11 8 9 12 11 11 11 12 11 10 10 9 11 11 10 17 16 16 14 14 13 12 13 12 11 11 10 10 9 10 10 10 10 10 10 10 10 10 11 11 11 11 12 12 12 12 12 13
15 14 13 12 10 10 14 14 10 11 9 8 7 8 8 8 11 10 8 9 8 7 9 10 11 11 10 9 4 11 11 12 11 11 10 10 11 10 10 10 11 15 20 18 16 15 13 13 12 11 11 11 11 11 10 10 10 11 11 11 11 11 11 12 12 12 13 12 13 13 13 12 12 14
13 15 15 12 10 10 10 9 13 12 12 10 8 8 6 7 9 10 9 10 10 8 10 9 8 9 11 10 10 11 12 11 11 11 11 11 10 11 10 9 9 19 22 18 17 15 14 13 13 12 12 12 12 12 12 12 12 12 12 12 12 12 12 12 12 12 12 12 12 12 14 13 14 16
15 12 13 10 9 10 10 11 12 12 13 11 10 11 11 13 9 6 7 9 8 10 10 9 9 10 9 10 9 13 12 12 10 10 11 11 10 10 9 8 8 7 8 7 8 10 12 14 14 14 13 14 13 13 13 13 13 13 13 13 12 12 12 12 12 12 12 12 12 12 11 12 13 15
10 12 11 11 12 13 14 13 14 12 10 11 11 10 10 13 8 7 6 9 11 11 10 10 9 9 10 9 8 8 12 11 11 10 9 10 10 9 9 9 9 8 9 11 13 12 12 13 12 13 15 14 15 15 14 14 14 13 13 13 13 13 12 12 11 10 10 10 11 11 12 12 13 15
10 10 9 8 10 11 9 9 7 5 6 4 6 7 3 4 3 7 6 6 9 8 9 10 8 8 8 7 7 12 12 11 11 11 9 9 9 9 8 9 8 10 10 9 9 10 11 11 14 14 15 17 16 16 14 15 14 14 14 13 13 11 10 9 9 10 10 10 11 12 12 13 13 13
13 9 8 9 9 10 8 8 6 5 2 3 6 6 3 4 2 1 3 4 6 8 8 2 6 10 10 9 10 11 11 12 11 9 9 8 9 9 9 9 9 9 10 9 10 10 11 11 10 10 10 11 16 14 15 11 14 15 13 13 10 10 10 10 10 10 10 11 11 12 12 12 12 12
9 9 8 8 12 13 9 11 11 11 9 7 4 7 6 5 5 4 7 9 8 1 3 8 7 5 8 10 10 11 8 8 8 10 10 10 9 9 9 8 8 9 10 9 10 11 11 11 11 10 11 10 12 9 9 9 10 11 14 12 12 10 9 8 8 8 8 9 9 10 10 10 11 11
8 10 9 5 6 9 9 11 13 10 10 10 3 6 4 5 7 7 7 6 3 5 2 5 1 5 6 7 9 10 9 10 10 9 9 8 8 9 9 9 8 9 9 9 8 8 11 11 10 10 10 11 10 9 5 11 8 7 6 6 5 4 4 4 4 5 6 6 7 7 8 8 9 9
9 8 7 5 4 5 8 10 11 10 10 11 8 8 8 7 6 5 2 5 5 5 6 7 8 8 5 5 6 10 11 10 10 9 9 9 9 9 10 8 8 9 8 8 7 8 8 11 8 9 7 5 8 8 13 17 14 12 11 9 7 5 3 1 1 3 4 4 5 5 6 7 7 8
4 4 4 7 7 9 14 13 11 10 8 9 11 10 9 7 7 7 7 8 1 6 6 7 9 9 8 8 8 7 7 8 9 9 9 9 9 9 7 6 8 9 9 7 8 8 7 8 7 6 8 8 9 9 13 17 16 14 12 11 8 7 4 3 2 2 2 3 3 4 4 5 5 5
7 9 5 7 9 7 13 9 10 11 10 9 8 8 8 6 7 7 6 4 3 2 4 5 7 8 7 6 1 6 5 6 8 8 9 9 8 8 3 1 5 7 7 7 6 7 6 6 5 6 9 9 7 8 11 16 15 14 13 11 10 8 7 6 5 5 5 5 5 5 5 4 4 4
11 6 6 9 8 10 11 10 9 10 10 9 8 8 9 6 5 3 2 1 2 4 1 2 4 6 7 7 3 4 5 5 6 5 4 3 4 5 8 8 6 4 2 1 1 4 4 2 2 4 9 9 9 7 10 15 15 15 13 12 10 9 8 7 6 6 6 5 6 5 5 4 3 2
7 5 3 2 5 6 8 8 6 3 4 9 10 10 8 8 6 6 4 4 5 3 6 4 3 6 8 8 3 1 2 7 4 6 5 3 3 4 4 5 4 4 3 5 1 4 1 3 4 3 2 9 8 7 6 12 16 15 13 12 10 9 9 8 7 6 5 6 6 6 6 4 2 3
2 3 5 9 5 4 6 13 15 9 9 10 8 8 9 7 7 5 5 8 8 10 14 15 14 13 14 14 13 12 13 8 1 5 6 6 6 5 5 3 3 4 6 5 6 3 3 1 3 1 6 7 8 8 8 6 12 15 15 13 12 11 10 10 8 7 7 7 7 6 4 3 3 5
8 7 12 1 7 4 1 11 17 16 13 9 9 11 12 9 7 6 5 5 5 10 13 13 14 14 15 16 16 15 15 15 5 5 4 5 4 5 4 5 4 5 5 4 5 2 2 4 6 5 2 5 7 10 9 9 7 9 11 14 13 11 11 11 10 9 8 7 8 7 7 8 9 3
7 6 10 13 6 4 5 9 11 9 6 5 7 8 9 9 8 8 8 8 9 8 8 8 8 9 9 9 9 11 16 14 12 6 1 8 9 8 7 5 7 5 4 4 7 0 1 4 5 6 2 4 4 6 11 10 9 8 7 6 6 9 10 11 11 10 8 9 7 7 9 12 9 5
8 8 7 9 11 11 8 9 11 10 7 1 7 7 7 9 9 9 9 8 8 9 8 8 8 9 9 8 8 8 8 9 9 9 10 11 8 5 5 5 4 5 3 3 5 3 2 3 2 4 1 3 1 5 7 7 10 6 3 2 4 7 9 12 11 10 10 9 8 9 12 14 11 7
7 7 7 5 10 11 10 11 13 13 12 8 6 4 6 8 10 10 8 7 9 9 9 9 8 7 8 7 7 7 7 8 8 8 10 9 9 8 6 3 4 8 6 4 4 3 3 1 1 4 2 1 2 3 2 1 2 2 3 1 0 7 5 8 8 6 8 9 10 12 14 14 13 9
7 7 6 6 8 12 13 15 16 18 18 19 12 13 17 17 15 10 9 8 8 8 7 7 7 7 7 6 7 8 8 8 8 8 9 9 9 8 7 8 5 7 6 1 4 4 4 2 6 3 1 1 2 1 0 2 1 2 4 1 3 3 1 2 2 7 7 5 5 5 9 13 11 10
8 6 6 6 11 15 15 17 19 18 19 14 13 20 19 16 14 9 6 7 7 7 7 7 8 8 8 7 7 7 7 8 8 7 8 8 8 8 9 10 9 8 5 3 3 4 5 5 5 5 4 4 4 2 2 3 1 5 1 2 4 2 4 6 4 4 4 5 6 9 12 9 10 10
9 9 8 7 12 15 17 19 20 19 16 13 15 15 15 15 12 8 7 5 5 5 6 7 8 8 8 8 7 7 7 7 8 7 8 7 8 9 8 9 10 8 7 7 6 6 6 4 6 4 4 3 3 2 3 3 1 2 3 5 3 3 5 3 3 3 4 4 3 3 4 3 4 5
10 12 14 14 14 13 15 17 18 17 18 19 18 18 15 8 6 5 5 5 6 10 9 8 8 7 6 6 6 6 7 8 8 7 6 8 9 9 9 9 7 6 6 5 6 6 5 5 5 3 1 1 2 3 3 3 3 2 5 4 3 5 4 4 5 5 5 5 4 4 5 5 4 3
17 16 17 18 18 17 13 10 11 11 12 18 19 18 15 10 9 9 9 10 9 8 8 7 7 6 5 4 5 6 6 6 6 5 6 6 6 6 7 8 8 7 7 7 7 6 6 6 5 4 3 1 3 2 3 3 3 3 4 4 6 4 2 5 4 5 4 4 5 5 4 4 5 3
11 14 14 12 13 12 14 13 12 13 13 14 12 11 10 11 10 10 9 8 8 7 7 7 6 5 5 5 6 7 7 6 5 4 5 5 6 7 7 7 7 6 6 6 6 6 6 5 3 3 4 6 2 3 4 2 3 2 3 3 3 3 4 4 3 5 5 4 3 3 3 4 3 4
9 9 11 13 10 10 11 11 10 10 11 10 10 10 11 11 10 11 13 13 9 8 7 6 6 6 6 6 6 5 5 5 5 5 4 3 3 3 5 6 6 6 6 6 6 6 6 7 6 6 7 7 7 6 3 4 2 2 2 2 2 2 4 4 5 4 3 3 3 4 4 4 4 3
10 10 11 11 11 10 10 10 9 8 10 10 10 11 10 9 9 9 8 9 8 7 7 7 6 5 5 5 5 6 6 6 5 4 4 5 4 4 3 4 5 6 6 5 4 5 6 5 7 6 5 4 6 6 7 4 3 4 3 3 3 4 4 4 3 3 3 3 3 3 4 4 4 3
9 10 9 9 9 9 9 8 8 8 8 9 10 10 11 11 10 10 9 9 8 7 7 6 5 5 4 6 7 7 6 5 5 5 5 5 4 4 4 4 5 4 4 4 3 3 5 6 5 5 5 6 6 7 7 6 3 3 3 3 3 2 2 2 2 3 4 4 4 4 3 3 4 3
7 6 6 6 8 8 7 7 7 7 8 8 9 9 8 8 9 8 8 6 4 5 5 5 5 5 7 6 6 6 6 6 5 4 3 2 2 3 2 4 4 3 3 3 3 3 2 5 8 5 5 6 5 5 6 6 5 2 1 1 1 2 2 3 3 4 5 4 3 3 2 2 3 3
7 5 6 6 6 7 7 6 6 7 8 7 7 6 6 7 6 7 6 5 6 5 6 6 5 5 5 5 5 5 5 4 4 4 3 3 4 4 5 5 3 3 2 3 3 3 2 3 2 3 6 6 5 4 2 8 9 6 1 1 3 3 4 3 3 3 3 3 4 3 3 3 4 4
6 5 6 6 6 6 7 7 7 7 8 7 8 7 7 6 6 6 6 5 7 6 6 5 4 4 3 3 3 3 3 3 3 2 2 3 3 3 2 3 3 1 3 4 2 3 2 3 3 4 5 3 4 5 4 3 8 11 6 2 1 2 3 3 2 2 2 2 2 3 2 1 2 3
5 5 6 6 6 6 6 6 6 6 7 6 6 7 7 7 6 6 6 7 5 4 5 4 3 3 2 3 3 3 3 3 2 3 3 3 3 3 2 1 1 3 3 4 4 4 4 4 2 2 3 3 2 5 4 3 2 5 8 5 0 1 2 2 1 0 1 2 2 2 2 1 2 2
7 6 6 6 5 6 6 6 5 6 6 6 6 6 6 6 5 5 4 4 5 5 4 3 3 3 3 3 3 3 2 2 3 3 3 3 3 3 2 2 3 3 4 4 5 4 3 5 6 5 4 2 3 3 2 2 5 2 4 8 4 1 1 1 3 2 3 1 1 2 3 3 4 5
7 7 6 6 6 6 6 5 6 5 5 5 5 5 5 4 4 4 4 4 4 4 3 3 3 3 3 3 3 3 3 3 3 3 3 3 3 3 2 2 3 3 3 2 2 3 6 6 4 4 3 3 2 2 3 2 2 3 3 4 7 5 3 2 2 3 2 3 3 0 3 3 3 4
7 6 6 6 6 6 6 6 6 6 6 6 6 5 5 5 5 3 3 3 3 3 4 3 3 3 3 2 2 3 3 3 3 4 4 3 2 2 3 4 1 3 2 3 4 4 6 4 2 3 3 1 1 4 3 2 1 2 3 3 0 2 2 4 4 4 3 3 4 1 1 1 3 2
6 6 6 6 6 6 6 6 6 6 6 5 4 3 5 4 3 3 4 3 3 3 3 3 2 3 3 3 3 3 3 3 3 2 2 2 3 2 0 1 2 2 2 3 3 3 5 4 4 4 5 2 1 0 2 3 2 2 2 4 3 2 4 5 6 5 4 3 3 3 3 1 2 1
5 5 5 5 5 5 5 5 5 5 5 5 4 4 3 3 2 2 3 2 2 2 2 2 2 2 2 3 3 3 3 3 3 3 2 2 2 3 2 1 1 1 3 3 4 3 3 3 3 1 1 1 1 2 2 2 2 2 2 2 4 5 3 3 5 7 6 5 4 3 2 2 3 2
4 4 5 4 5 5 5 5 5 5 5 3 3 3 3 2 3 3 2 2 2 2 2 3 3 3 3 2 3 3 3 3 3 2 3 2 2 3 3 2 2 4 2 2 3 3 3 2 2 0 1 2 1 1 2 1 2 1 1 1 0 2 5 3 2 2 4 5 5 4 2 2 1 3
4 4 4 4 4 4 4 5 5 5 4 3 3 3 2 2 3 3 3 3 3 2 2 2 2 2 3 3 3 3 2 2 2 3 5 4 3 1 2 2 3 2 3 3 1 4 2 2 1 2 2 2 1 1 1 2 1 2 2 1 2 3 3 2 2 2 2 2 2 4 2 3 3 3
Wind_Direction
196 219 235 228 220 218 223 214 223 250 233 231 199 227 216 208 207 199 202 206 195 188 195 184 185 166 177 178 172 175 153 146 162 168 172 156 166 167 169 168 161 163 162 157 159 149 149 153 152 153 154 154 154 155 157 153 148 150 146 138 125 126 127 125 116 80 194 187 145 135 142 159 170 175
180 226 242 232 229 213 219 222 228 239 243 236 207 206 227 223 220 204 208 200 197 191 193 190 186 183 171 179 172 192 160 154 174 171 184 161 163 159 171 168 165 166 165 163 161 162 162 167 167 165 166 166 164 163 165 166 165 167 172 170 160 157 160 160 165 182 201 154 151 161 175 186 195 202
168 209 226 225 232 204 216 233 236 225 219 216 187 216 220 219 225 248 238 200 216 207 184 191 184 183 181 181 180 187 143 166 165 184 186 179 142 158 168 170 169 170 171 166 168 170 173 176 180 177 178 176 175 174 177 177 179 184 185 174 172 178 181 186 191 202 209 192 187 191 195 205 210 221
183 198 206 219 224 217 213 212 217 218 211 215 213 203 213 212 205 222 223 261 205 265 183 174 179 195 174 172 182 190 143 166 170 189 196 131 141 158 169 175 174 177 175 175 176 177 176 182 185 186 188 186 184 183 185 182 188 191 188 182 183 190 193 196 202 215 221 222 213 214 216 221 227 232
191 197 201 220 224 219 217 216 214 224 218 210 211 206 211 228 215 215 185 218 196 194 169 214 169 186 185 185 179 189 151 157 182 205 141 138 155 165 168 177 180 181 180 181 181 180 178 183 187 188 192 194 195 192 192 192 194 193 193 192 191 197 203 206 209 220 230 232 232 227 226 230 230 230
190 193 195 214 215 217 226 229 219 210 213 209 211 212 213 218 229 231 220 202 201 182 157 195 197 174 183 189 192 186 160 168 173 196 155 169 175 181 172 172 181 185 185 185 185 184 182 185 191 190 194 199 201 199 199 200 200 201 200 200 199 203 208 211 214 218 226 233 235 234 232 233 235 237
205 201 200 199 197 208 219 236 229 219 207 212 212 212 207 216 235 228 204 182 196 191 182 191 198 191 177 187 191 182 182 167 180 194 181 177 188 187 186 175 175 179 186 186 186 189 187 188 194 193 196 200 202 207 207 207 209 210 209 206 209 213 214 219 223 223 229 232 235 238 239 238 238 239
209 207 204 199 190 201 221 214 228 221 199 199 211 217 212 208 219 232 209 178 188 200 195 194 201 187 185 168 191 205 184 181 181 197 190 183 187 189 190 193 171 174 182 183 186 189 189 191 193 197 198 201 205 210 212 212 213 215 215 213 215 217 218 222 225 230 232 237 240 244 245 246 248 250
217 211 210 201 187 183 219 208 221 219 206 201 199 218 228 234 224 216 199 206 178 194 202 197 204 194 191 182 183 204 181 192 174 202 192 188 193 189 186 212 154 162 179 179 184 186 188 192 196 199 202 204 208 210 214 215 217 217 217 218 219 220 223 225 230 234 239 244 248 253 255 255 256 257
214 208 209 199 197 199 208 212 217 219 210 206 205 207 211 221 209 220 210 209 206 195 203 202 201 187 197 181 200 196 190 194 181 197 191 188 194 185 187 193 132 146 160 175 187 186 189 197 200 203 205 209 210 214 214 217 219 220 220 221 223 225 227 230 233 237 244 249 255 260 266 270 269 266
223 208 204 199 204 209 207 204 217 214 213 213 217 223 213 222 178 199 200 210 198 200 200 207 206 204 190 185 190 194 194 182 198 192 192 188 189 187 179 189 144 156 168 180 176 184 195 192 200 205 213 212 216 215 216 218 220 221 223 225 226 229 231 235 238 245 250 255 259 261 263 265 267 269
215 200 196 202 214 218 213 205 195 166 226 259 249 228 262 309 218 205 195 225 228 213 194 200 199 210 174 171 193 207 194 184 195 195 194 192 187 181 180 197 181 162 165 180 184 187 190 193 201 205 211 218 218 217 219 222 223 223 224 226 230 234 241 243 246 247 249 252 254 256 259 260 262 265
219 197 184 196 206 213 198 154 141 154 141 211 228 226 166 150 94 324 348 315 290 237 200 72 238 202 182 181 193 213 202 199 198 187 188 191 192 184 186 194 203 187 175 185 181 186 189 200 202 203 212 216 214 220 217 221 219 225 224 226 230 236 238 242 247 248 252 254 255 258 261 264 265 267
203 201 195 190 194 217 173 145 149 153 162 171 255 227 177 178 176 167 185 207 220 261 304 175 213 219 208 189 188 214 206 187 197 192 190 194 186 191 187 193 199 200 193 194 197 189 181 193 198 201 209 215 190 207 194 216 219 209 214 221 228 233 242 254 255 258 259 259 261 262 263 264 266 266
195 212 199 173 204 212 187 161 159 183 180 172 183 64 109 154 174 185 187 206 152 185 129 91 95 312 259 211 189 206 187 189 200 195 195 196 201 200 190 194 193 198 205 198 206 210 175 189 200 204 207 210 186 182 190 182 151 112 158 199 205 221 245 247 254 261 260 262 264 268 267 268 269 269
216 209 192 157 183 210 226 202 169 183 172 153 152 140 126 123 82 50 202 183 182 194 181 166 176 199 223 268 224 200 192 190 199 201 195 199 206 218 212 214 201 182 197 204 209 219 178 182 208 209 206 85 85 97 100 100 103 99 94 95 100 99 107 154 257 269 278 276 279 277 275 274 274 272
261 262 144 176 181 201 222 212 183 163 153 142 140 131 125 110 117 103 57 19 300 186 178 167 175 192 181 201 224 218 214 201 202 196 199 196 208 225 208 207 226 159 181 190 208 216 218 184 198 227 107 107 106 99 97 103 105 106 105 104 100 103 101 78 65 2 354 333 319 315 304 298 293 285
233 225 207 201 202 197 218 213 207 176 158 159 157 165 169 145 100 93 112 107 32 326 202 192 204 187 173 173 188 279 279 213 195 191 197 188 200 223 178 81 88 135 169 188 193 212 225 182 182 204 86 93 92 94 115 113 114 111 110 111 111 109 100 90 79 62 45 30 20 6 355 336 324 314
219 199 218 217 219 205 210 204 198 167 171 169 177 183 193 177 160 151 100 69 199 193 188 151 220 202 179 174 168 306 266 237 216 194 164 127 131 83 99 103 100 91 131 215 322 241 220 44 242 139 122 116 110 124 121 118 114 117 120 118 115 105 100 92 81 70 60 53 43 29 24 14 7 15
217 192 182 310 195 205 221 154 184 162 195 182 180 189 154 115 93 62 40 7 322 321 214 213 74 59 66 64 93 105 230 201 134 101 114 111 90 134 114 131 140 112 79 18 267 241 47 40 87 67 140 120 119 123 114 122 125 126 124 125 128 134 135 128 121 111 97 81 65 46 36 20 3 81
100 41 166 191 253 217 188 162 155 189 201 193 173 189 143 149 103 93 71 52 50 76 83 86 96 95 81 72 59 47 31 11 132 156 162 167 179 167 163 143 132 163 87 33 18 358 85 285 72 145 153 136 143 139 138 140 144 143 143 143 148 150 144 136 125 115 102 87 73 72 57 31 17 125
85 49 29 38 184 250 159 144 146 176 192 179 187 180 153 128 118 112 119 103 71 77 82 85 90 90 88 84 74 56 42 25 360 175 169 146 171 189 166 161 110 91 75 50 343 308 148 200 174 224 252 169 166 145 142 146 145 149 146 153 158 161 149 137 121 103 93 81 76 64 41 33 337 245
79 58 45 28 33 154 101 94 87 54 13 185 170 152 150 138 138 137 137 129 125 117 101 95 95 97 101 90 79 68 56 40 26 27 229 179 204 197 205 150 142 141 107 35 346 287 303 66 17 50 310 255 187 154 146 151 158 160 160 160 170 165 136 119 111 109 103 99 100 88 67 36 357 326
52 44 33 28 27 58 66 76 71 64 30 243 149 146 146 139 129 137 139 140 137 128 124 112 101 99 101 100 93 80 71 61 43 42 39 33 29 41 90 89 73 100 88 63 2 351 357 109 191 139 258 308 182 178 174 179 167 174 121 147 170 149 120 117 107 113 121 121 109 87 72 59 27 356
43 32 27 28 14 47 55 67 66 63 54 62 109 100 117 116 124 123 105 80 88 106 106 115 113 102 79 70 80 84 73 65 62 56 48 41 36 35 32 70 121 86 80 46 323 327 344 168 202 112 187 220 296 333 29 41 139 207 154 126 342 135 169 154 137 129 138 126 111 87 78 74 50 27
47 34 19 18 20 45 57 62 69 71 74 78 80 87 88 83 87 100 109 121 127 122 119 110 106 105 106 96 84 76 69 69 63 56 55 55 56 46 44 22 54 101 90 212 284 325 313 77 37 22 15 256 224 243 174 142 189 229 110 183 80 57 259 347 78 143 149 107 85 72 90 87 78 53
57 46 43 40 44 53 52 66 68 70 73 75 90 93 90 87 83 89 96 98 106 107 106 104 101 95 87 90 84 75 78 77 71 60 54 62 69 69 47 36 51 85 105 94 23 19 355 67 58 38 18 10 345 11 211 249 178 74 256 74 50 319 12 34 24 359 17 85 98 94 74 71 92 86
55 45 40 51 62 68 67 63 65 64 65 70 69 71 78 84 84 95 84 70 66 71 87 76 66 68 68 62 62 71 77 74 70 69 76 67 58 59 66 58 48 46 57 57 53 46 25 53 86 55 29 5 353 353 342 45 15 10 350 45 347 2 29 12 25 4 25 21 97 91 108 127 156 130
53 53 46 41 47 49 60 67 67 62 59 59 57 57 52 63 121 125 108 96 77 71 69 71 70 66 65 77 86 102 102 96 86 79 76 77 73 76 76 72 67 55 50 55 55 50 50 46 52 75 197 337 341 21 3 349 8 311 55 13 325 23 348 24 22 24 8 35 37 45 29 28 35 39
46 45 47 44 42 41 32 50 62 66 62 61 57 53 55 51 48 55 74 77 81 76 72 68 70 71 67 57 48 52 71 91 99 114 111 106 105 103 89 83 73 64 57 47 45 59 61 49 45 20 348 220 107 358 26 358 339 339 34 17 13 326 10 24 13 32 7 9 45 47 35 43 47 12
37 37 40 43 40 51 45 45 59 65 58 56 51 51 55 54 47 47 47 59 71 77 75 71 71 73 72 60 53 56 54 48 26 43 88 108 119 121 112 109 104 96 85 78 65 48 56 56 60 24 16 18 4 74 37 299 282 342 15 28 12 328 0 5 20 45 24 358 46 57 51 50 63 42
19 31 35 37 33 36 40 35 35 46 56 58 58 54 53 51 49 50 55 56 55 57 67 74 67 51 57 65 63 63 62 58 44 28 41 48 80 100 120 111 112 117 120 121 119 100 69 40 21 46 55 34 26 19 329 273 306 28 344 21 333 11 37 24 13 31 22 345 4 42 46 53 52 41
15 23 33 31 28 30 35 34 29 37 54 56 56 59 58 58 56 51 47 52 50 50 59 65 68 77 86 86 76 72 68 58 46 16 49 41 55 37 62 107 127 129 122 114 118 125 114 88 65 56 62 65 36 11 344 331 56 38 5 27 18 19 28 38 18 6 345 16 34 50 60 63 71 64
24 19 22 25 27 26 29 32 29 29 43 53 53 49 52 53 52 51 49 45 43 38 45 45 46 45 61 69 68 68 68 66 54 31 29 58 58 75 84 90 89 83 98 99 84 83 127 133 127 117 83 72 78 46 16 356 359 56 40 32 17 36 36 14 19 13 356 13 10 13 42 37 39 49
32 19 24 19 23 26 29 34 30 32 41 48 55 55 55 54 56 57 56 53 48 47 52 51 49 45 44 49 50 58 52 53 54 46 30 50 53 80 86 93 84 92 89 77 96 72 323 151 152 147 158 141 96 62 43 28 348 58 97 62 9 4 17 22 357 2 7 348 13 352 3 98 89 75
36 29 32 29 31 29 38 38 35 38 44 44 51 56 58 54 51 53 51 38 51 50 47 47 45 42 41 43 45 44 43 34 47 52 46 50 40 46 44 34 61 100 85 93 67 72 16 360 5 186 173 177 150 123 71 12 24 341 352 19 22 16 358 353 354 10 15 17 19 14 16 2 16 35
37 37 36 40 41 43 47 45 44 44 48 50 52 54 60 61 54 56 52 53 58 52 46 51 50 45 47 45 52 50 53 51 44 22 38 70 71 71 69 66 29 341 124 96 95 93 27 27 24 3 331 301 177 150 113 113 39 18 21 54 8 9 13 340 1 24 63 37 32 42 47 25 359 50
42 39 39 41 42 46 49 47 47 48 51 51 58 66 70 70 69 62 58 60 61 62 56 52 41 53 61 78 73 73 70 63 53 37 45 54 62 70 82 69 39 38 46 97 89 58 22 63 32 36 343 337 357 116 132 145 93 42 4 357 42 19 351 335 329 128 51 53 54 38 47 25 47 92
34 42 49 56 56 56 56 58 60 63 62 62 64 64 66 68 67 68 67 64 60 65 65 62 61 58 49 41 36 46 58 68 70 66 54 64 76 90 91 93 86 55 36 47 71 57 59 43 27 24 32 18 21 27 7 17 110 121 24 9 22 340 41 345 328 334 93 65 125 164 101 114 83 78
39 44 49 56 60 64 70 74 75 75 79 79 78 75 71 70 69 68 64 62 63 70 72 73 74 75 77 86 97 98 87 70 70 77 78 70 48 40 38 22 86 100 85 55 56 80 67 53 35 19 30 60 34 3 33 26 69 111 113 49 35 38 0 335 350 349 9 12 329 320 150 174 201 203
40 48 54 59 63 66 70 75 76 79 79 79 80 77 78 70 67 59 65 78 89 80 74 68 63 63 74 84 96 100 99 102 100 90 82 78 69 59 22 353 333 109 107 89 69 69 78 76 125 205 304 87 198 239 202 193 147 122 125 121 74 141 75 3 4 0 0 345 326 348 17 39 13 14
49 54 56 57 61 67 68 71 74 79 83 81 80 76 74 78 80 93 76 68 91 105 104 99 104 108 99 83 78 73 77 74 73 81 99 116 110 80 47 212 96 49 69 100 93 86 102 132 158 221 236 241 268 196 71 47 64 88 102 138 155 189 153 101 78 42 19 9 359 11 9 43 83 60
56 60 64 67 65 67 71 72 74 72 73 78 89 98 108 119 138 127 108 112 111 112 111 102 98 102 103 100 94 95 92 91 93 88 62 45 90 97 58 51 336 280 122 108 108 108 118 147 170 176 53 58 50 56 82 88 101 120 147 149 153 166 144 157 134 112 88 59 42 44 13 1 336 23
62 70 68 76 84 84 82 84 87 91 94 99 114 129 120 108 103 105 111 111 104 94 94 98 95 91 95 82 84 96 105 113 125 125 118 104 88 126 140 120 50 5 27 108 114 113 124 113 114 172 122 84 77 92 115 149 119 99 86 88 131 140 153 157 134 145 140 111 96 107 55 339 166 205
63 72 84 77 78 80 83 90 96 101 109 110 94 89 94 89 81 77 75 80 87 87 98 106 102 96 98 110 115 109 116 159 160 177 166 159 147 97 58 112 114 101 45 352 85 118 109 114 124 119 98 92 85 84 63 32 52 67 65 41 21 37 84 127 162 143 109 96 138 138 165 187 206 241